Location: Unspecified
(0.0000°N, 0.0000°E)
Time: 06:25:43
(UTC+00:00)

Courier 1B - Pass Details

Date: 01 October 2023
Orbit: 962 x 1208 km, 28.3° (Epoch: 06 December)

Event Time Altitude Azimuth Distance (km) Brightness Sun altitude
Rises 19:40:57 0° 294° (WNW) 4,054 11.7 -27.8°
Reaches altitude 10° 19:43:52 10° 291° (WNW) 3,067 10.9 -28.5°
Maximum altitude 19:51:22 64° 211° (SSW) 1,224 8.0 -30.4°
Enters shadow 19:52:41 55° 165° (SSE) 1,310 8.0 -30.7°
Drops below altitude 10° 19:58:26 10° 130° (SE) 2,895 - -32.1°
Sets 20:01:08 0° 127° (SE) 3,814 - -32.8°
